Weather History for Danbury, CT

Change the Weather History Date:

Friday, July 13, 2012

  Actual Average Record
Temperature  
Mean Temperature 74 °F -  
Max Temperature 84 °F 84 °F 99 °F (1966)
Min Temperature 64 °F 60 °F 48 °F (1973)
Cooling Degree Days 9    
Growing Degree Days 24 (Base 50)    
Moisture  
Dew Point 63 °F    
Average Humidity 65    
Maximum Humidity 87    
Minimum Humidity 46    
Precipitation  
Precipitation 0.00 in - - ()
Sea Level Pressure  
Sea Level Pressure 30.19 in    
Wind  
Wind Speed 1 mph (South)    
Max Wind Speed 9 mph    
Max Gust Speed -    
Visibility 10 miles    
Events      
Averages and records for this station are not official NWS values.
T = Trace of Precipitation, MM = Missing Value Source: NWS Daily Summary

Daily Weather History Graph

Daily Weather History Graph

Search for Another Location

Airport:

Trip Planner

Search our weather history database for the weather conditions in past years. The results will help you decide how hot, cold, wet, or windy it might be!

Date:

Astronomy

Jul. 13, 2012 Rise Set
Actual Time 5:32 AM EDT 8:26 PM EDT
Civil Twilight 4:59 AM EDT 8:59 PM EDT
Nautical Twilight 4:17 AM EDT 9:41 PM EDT
Astronomical Twilight 3:29 AM EDT 10:29 PM EDT
Moon 1:08 AM EDT (7/13) 3:53 PM EDT (7/13)
Length of Visible Light 16h 00m
Length of Day
14h 54m
Waning Crescent, 26% of the Moon is Illuminated
Jul 13
Waning Crescent
Jul 19
New
Jul 26
First Quarter
Aug 1
Full
Aug 9
Last Quarter

Hourly Weather History & Observations

Time (EDT) Temp. Heat Index Dew Point Humidity Pressure Visibility Wind Dir Wind Speed Gust Speed Precip Events Conditions
12:53 AM 71.1 °F - 60.1 °F 68% 30.19 in 10.0 mi Calm Calm - N/A   Mostly Cloudy
1:53 AM 71.1 °F - 60.1 °F 68% 30.19 in 10.0 mi Calm Calm - N/A   Scattered Clouds
2:53 AM 68.0 °F - 60.1 °F 76% 30.19 in 10.0 mi Calm Calm - N/A   Partly Cloudy
3:53 AM 66.9 °F - 61.0 °F 81% 30.18 in 10.0 mi Calm Calm - N/A   Clear
4:53 AM 66.0 °F - 60.1 °F 81% 30.19 in 10.0 mi Calm Calm - N/A   Clear
5:53 AM 64.9 °F - 61.0 °F 87% 30.19 in 10.0 mi Calm Calm - N/A   Clear
6:53 AM 68.0 °F - 62.1 °F 81% 30.20 in 10.0 mi Calm Calm - N/A   Clear
7:53 AM 72.0 °F - 61.0 °F 68% 30.21 in 10.0 mi Calm Calm - N/A   Clear
8:53 AM 73.9 °F - 62.1 °F 66% 30.22 in 10.0 mi WSW 5.8 mph - N/A   Clear
9:53 AM 78.1 °F - 63.0 °F 60% 30.22 in 10.0 mi Calm Calm - N/A   Clear
10:53 AM 81.0 °F 82.5 °F 64.0 °F 56% 30.22 in 10.0 mi Calm Calm - N/A   Clear
11:53 AM 82.9 °F 84.6 °F 64.9 °F 54% 30.21 in 10.0 mi Calm Calm - N/A   Clear
12:53 PM 84.9 °F 87.1 °F 66.0 °F 53% 30.20 in 10.0 mi SSW 5.8 mph - N/A   Clear
1:53 PM 84.0 °F 87.0 °F 68.0 °F 58% 30.19 in 10.0 mi South 8.1 mph - N/A   Clear
2:53 PM 84.0 °F 85.8 °F 64.9 °F 53% 30.18 in 10.0 mi SSE 5.8 mph - N/A   Clear
3:53 PM 84.9 °F 85.4 °F 62.1 °F 46% 30.17 in 10.0 mi Variable 6.9 mph - N/A   Clear
4:53 PM 84.0 °F 86.3 °F 66.0 °F 55% 30.17 in 10.0 mi South 9.2 mph - N/A   Clear
5:53 PM 81.0 °F 82.7 °F 64.9 °F 58% 30.16 in 10.0 mi SSE 6.9 mph - N/A   Clear
6:53 PM 79.0 °F - 64.9 °F 62% 30.17 in 10.0 mi Variable 3.5 mph - N/A   Clear
7:53 PM 78.1 °F - 66.0 °F 66% 30.17 in 10.0 mi Calm Calm - N/A   Clear
8:53 PM 77.0 °F - 64.9 °F 66% 30.17 in 10.0 mi Calm Calm - N/A   Clear
9:53 PM 75.9 °F - 64.0 °F 67% 30.18 in 10.0 mi Calm Calm - N/A   Clear
10:53 PM 75.0 °F - 64.9 °F 71% 30.17 in 10.0 mi Calm Calm - N/A   Clear
11:53 PM 73.9 °F - 64.0 °F 71% 30.17 in 10.0 mi Calm Calm - 0.00 in   Overcast